Temp
7 7 7 7 7 7 7 7 7 7 7 7 7 7 7 7 7 7 8 8 8 8 8 8 8 8 8 8 7 7 7 7 8 7 8 12 14 12 12 13 14 15 13 13 14 15 16 16 17 17 18 18 18 19 19 20 21 22 22 22 21 21 22 23 24 25 26 27 28 27 27 27 28 28 27 25 23 22 21 20 20 20 20 19 19 18 18 17
7 7 7 7 7 7 7 7 7 7 7 7 7 7 7 7 7 7 7 7 8 8 8 8 8 8 7 8 7 7 7 7 7 7 9 13 13 12 13 13 14 14 13 13 14 14 15 17 17 16 18 18 18 19 19 20 21 21 21 21 21 22 23 25 26 25 26 28 28 28 27 27 27 27 27 27 25 22 21 21 20 20 19 19 18 18 18 17
7 7 7 7 7 7 7 7 7 7 7 7 7 7 7 7 7 7 7 7 7 8 8 7 8 7 7 8 7 7 7 7 8 10 12 12 12 12 14 14 14 15 13 13 14 14 15 16 16 16 18 18 18 19 19 20 20 21 21 21 21 22 23 25 25 25 26 28 29 28 26 26 27 26 27 27 25 23 22 21 20 20 19 19 18 18 18 17
7 7 7 7 7 7 7 7 7 7 7 7 7 7 7 7 7 7 7 7 7 7 8 7 7 7 8 7 7 8 7 7 11 13 12 12 12 14 14 14 14 15 14 14 14 15 15 15 16 17 17 17 18 19 19 20 20 20 20 21 21 22 23 24 24 25 26 27 28 27 26 26 26 25 26 26 25 24 22 21 21 20 19 19 18 18 18 18
7 7 7 7 7 7 7 7 7 7 7 7 7 7 7 7 7 7 7 7 7 7 7 7 7 7 7 7 7 7 8 11 14 12 12 12 13 14 13 13 13 14 14 14 14 14 15 15 16 17 17 17 18 18 19 19 20 20 20 21 22 22 23 24 24 25 25 25 26 25 26 26 26 25 25 26 27 26 24 21 21 20 19 19 18 18 18 18
7 7 7 7 7 7 7 7 7 7 7 7 7 7 7 7 7 7 7 7 7 7 7 7 7 7 7 7 7 7 9 13 14 12 12 12 13 13 13 13 12 12 12 13 14 14 15 15 16 17 17 17 17 18 18 19 20 20 20 21 22 22 23 24 24 24 24 24 25 25 25 26 26 25 23 24 26 24 22 22 21 20 20 20 19 19 18 18
6 6 6 7 7 7 7 7 7 7 7 7 7 7 7 7 7 7 7 6 6 7 7 7 7 7 7 7 7 7 7 9 11 12 12 12 12 13 12 13 13 12 12 13 14 14 15 15 15 16 17 17 17 18 18 19 20 20 20 20 21 22 22 24 24 24 24 24 24 24 25 25 26 26 22 22 23 21 21 21 21 20 20 20 19 19 18 18
6 6 6 6 6 6 6 6 7 7 7 7 7 7 7 7 7 7 7 6 6 6 7 7 7 7 7 6 7 6 5 8 10 11 11 12 12 12 12 13 13 13 13 13 13 14 15 15 15 16 17 17 17 17 18 19 19 19 19 20 21 21 22 24 23 24 24 23 23 23 24 25 26 25 23 22 20 20 21 21 20 20 20 20 19 19 19 18
6 6 6 6 6 6 6 6 6 6 7 7 6 7 7 7 7 7 7 7 7 7 6 7 7 7 6 6 6 6 7 9 10 10 11 12 12 12 12 12 12 12 12 13 13 13 14 15 15 16 16 17 17 18 19 19 19 19 19 20 21 21 22 23 23 23 23 23 23 23 24 25 25 24 23 21 20 20 21 20 20 20 19 19 19 19 19 18
6 6 6 6 6 6 6 6 6 6 6 6 6 6 6 6 7 7 7 7 7 7 7 6 7 7 6 6 6 6 8 11 11 11 12 12 12 12 12 12 11 11 12 12 12 12 13 14 15 16 16 17 18 18 18 19 19 20 20 20 21 22 22 22 22 23 23 22 24 24 24 25 24 24 24 20 20 21 20 20 20 20 19 19 19 19 19 18
6 6 6 6 6 6 6 6 6 6 6 6 6 6 6 6 6 6 6 6 6 6 6 6 7 6 6 6 5 5 9 11 11 12 12 11 12 12 12 12 10 10 11 11 12 13 13 14 15 16 16 17 17 18 18 19 20 20 21 20 20 21 22 22 22 22 23 23 23 24 24 25 22 23 24 21 20 21 20 20 20 19 19 19 19 19 18 18
6 6 6 6 6 6 6 6 6 6 6 6 6 6 6 6 6 6 6 6 6 6 6 6 6 6 6 5 5 6 9 10 10 11 11 11 11 11 11 11 11 10 11 11 12 13 13 14 14 15 16 17 17 18 19 19 20 20 21 20 20 21 21 21 21 22 22 23 23 24 24 23 22 23 23 20 20 20 20 20 19 19 19 19 19 18 18 18
6 6 6 6 6 6 6 6 6 6 6 6 6 6 6 6 6 6 6 6 6 6 6 6 6 6 6 5 6 8 8 9 9 9 10 10 9 10 11 11 12 11 11 11 12 13 13 14 14 14 16 16 17 18 19 19 19 20 20 21 21 20 20 21 22 22 22 23 24 24 22 22 23 22 21 20 20 20 19 20 19 19 18 18 18 18 18 18
6 6 6 6 6 6 6 6 6 6 6 6 6 6 6 6 6 6 6 6 6 6 6 6 6 6 5 5 7 8 8 8 8 9 10 10 9 10 11 12 12 11 11 11 12 13 13 13 14 14 15 16 16 17 17 18 19 20 20 20 20 20 20 21 22 22 22 23 24 24 21 22 24 21 19 20 20 20 20 19 19 18 18 18 18 18 18 18
6 6 6 6 6 6 6 6 6 6 6 6 6 6 6 6 6 6 6 6 6 6 6 6 6 6 5 5 7 8 9 9 9 10 11 10 9 9 11 12 12 11 11 12 13 13 13 14 13 14 15 16 16 16 16 18 19 20 20 19 19 19 20 22 22 22 22 22 24 24 21 22 24 20 19 20 19 20 20 19 19 18 18 18 18 18 18 18
6 6 6 6 6 6 6 6 6 6 6 6 6 6 6 6 7 7 7 6 6 6 6 5 6 5 5 5 7 8 9 9 10 11 11 10 9 10 11 11 11 11 12 12 13 13 13 14 14 14 15 16 16 15 16 17 18 19 19 19 19 19 20 21 22 21 23 23 23 23 22 23 23 20 20 20 20 20 20 19 19 18 18 18 18 18 18 17
6 6 6 6 6 6 6 6 6 6 6 6 6 6 7 7 7 8 7 7 7 6 5 5 6 5 5 6 7 8 9 10 10 10 10 10 10 10 10 10 10 11 12 13 13 13 14 14 14 15 15 15 15 15 16 16 17 17 18 18 19 19 19 21 22 21 22 23 23 22 23 23 21 19 20 20 20 20 20 20 19 18 18 18 18 18 17 17
6 6 6 6 6 6 6 6 6 6 6 6 6 6 7 7 7 7 7 7 7 6 5 5 5 5 6 7 7 8 9 10 10 10 10 11 11 11 10 10 11 11 12 14 14 14 14 14 15 15 14 15 15 15 15 16 17 17 17 18 18 19 19 20 22 22 21 23 23 22 23 23 20 19 20 20 20 20 20 19 19 18 18 18 18 18 17 17
5 6 6 5 6 6 6 6 6 6 6 6 6 7 8 7 7 7 7 6 6 6 6 6 5 6 8 8 7 8 9 9 9 10 11 11 12 11 10 10 11 12 13 13 13 14 14 14 14 14 14 14 14 15 16 17 18 17 17 18 19 20 19 20 22 22 22 22 22 22 22 22 20 19 20 20 20 20 19 19 19 18 18 18 18 18 18 17
5 5 5 5 6 6 6 6 6 6 5 5 5 6 7 6 6 7 6 6 6 7 7 7 5 6 8 8 8 9 9 9 10 10 11 11 11 10 9 10 11 12 13 13 13 14 14 14 13 13 14 14 15 16 17 17 18 18 18 19 20 20 20 20 22 23 22 22 22 22 23 22 20 19 19 20 20 20 19 19 19 19 18 18 18 18 18 17
5 5 5 5 5 6 6 6 6 6 5 5 5 5 6 5 5 6 6 6 6 7 7 7 6 6 7 8 8 8 8 8 9 9 10 11 10 10 10 10 10 11 12 13 14 14 14 13 13 14 15 16 16 16 17 17 17 18 19 19 19 20 21 21 22 23 23 23 22 21 23 22 19 19 19 20 20 20 19 19 19 19 18 18 18 18 18 17
5 5 5 5 5 5 5 5 5 6 5 5 5 5 5 6 6 6 5 5 6 7 6 6 6 6 7 7 8 8 7 7 7 9 10 10 10 10 10 10 10 11 12 13 14 13 13 13 13 15 16 17 16 16 17 17 17 18 18 19 19 19 21 21 22 23 22 23 22 21 22 21 19 19 19 19 20 20 20 19 19 19 19 18 18 18 18 18
5 5 5 5 5 5 5 5 5 5 5 5 4 4 5 6 6 6 5 5 6 7 7 6 6 6 6 7 7 7 6 6 7 9 11 10 9 10 11 10 10 11 11 12 13 12 12 13 15 16 16 17 16 16 17 17 17 17 17 18 19 19 20 21 22 22 22 22 22 21 21 20 18 19 19 19 19 20 19 19 19 19 19 19 18 18 18 18
5 5 5 5 5 5 5 5 5 5 5 4 4 5 6 6 6 6 5 5 5 6 7 7 7 6 6 7 8 7 6 7 7 9 11 11 10 11 10 10 10 11 11 12 12 12 13 14 15 16 16 16 15 16 17 17 16 16 17 18 19 19 21 22 22 22 21 20 20 20 19 19 19 19 19 19 19 19 19 19 19 19 19 19 18 18 18 17
5 5 5 5 5 5 5 5 5 5 5 5 5 6 7 6 6 6 5 5 5 6 7 8 7 7 8 8 8 7 7 7 8 9 11 12 11 11 11 11 11 11 11 12 12 12 13 15 15 16 16 16 16 15 16 17 16 16 17 18 19 20 21 22 21 21 21 20 20 20 20 19 19 19 19 19 19 19 19 19 19 18 18 19 18 18 18 17
5 5 5 5 5 5 5 5 5 4 4 5 6 6 6 6 6 6 5 4 5 7 8 8 8 9 10 8 8 8 7 8 9 10 11 11 12 12 11 11 12 11 12 12 12 12 13 14 15 15 16 16 16 15 16 17 16 16 17 18 19 20 20 21 21 21 21 20 21 21 21 20 19 19 19 19 19 19 19 19 19 18 18 18 18 18 18 17
4 5 5 5 5 5 5 5 5 4 4 5 6 6 6 6 6 6 6 5 6 8 9 8 8 10 10 9 9 9 8 10 11 10 10 10 11 12 11 11 12 12 13 13 12 13 14 14 14 15 16 16 15 15 16 17 17 16 18 19 19 19 20 20 21 21 20 20 20 20 20 20 19 19 20 19 19 19 19 19 19 18 19 19 18 18 18 18
4 4 4 4 4 4 5 4 4 5 5 6 6 6 6 6 6 6 6 6 7 9 9 9 10 10 10 10 9 9 10 11 10 10 10 10 11 13 12 11 12 12 14 13 12 13 15 14 14 14 15 15 15 16 17 17 17 18 19 19 19 20 20 20 20 21 20 20 20 19 20 20 19 19 19 19 19 19 19 19 19 18 19 19 18 18 18 18
4 4 4 4 4 4 5 4 4 5 6 6 6 6 6 6 6 6 6 6 8 9 9 10 11 10 10 9 8 9 10 11 10 10 10 10 11 13 12 12 13 12 14 13 13 14 15 15 15 15 15 15 16 18 18 18 18 19 19 18 19 19 19 20 20 20 20 20 20 20 19 20 19 18 18 19 19 20 19 19 19 19 19 19 18 18 18 18
4 4 4 4 4 4 5 4 5 6 6 6 6 6 6 6 6 6 5 6 8 9 9 10 10 10 9 9 8 9 9 10 11 11 10 10 11 12 13 13 13 13 13 13 14 15 15 16 16 16 16 16 17 18 18 19 19 19 19 19 19 19 19 20 19 20 20 20 20 20 20 21 20 18 18 19 20 20 20 19 19 19 19 19 19 18 18 18
4 4 4 4 4 4 4 4 5 6 6 6 5 5 5 6 6 5 6 7 8 8 9 9 9 9 8 8 8 9 9 10 11 11 10 10 11 12 13 13 13 13 13 12 13 14 15 16 16 16 17 18 18 18 18 19 19 19 20 20 20 19 19 19 19 19 19 19 20 20 20 20 20 19 18 19 20 20 20 20 19 19 18 19 19 18 18 18
3 3 4 4 4 4 4 5 5 6 7 6 5 5 6 6 5 5 7 8 8 8 8 8 8 8 8 7 7 9 9 10 11 10 9 10 11 11 12 12 12 12 12 12 13 14 14 15 16 17 18 18 18 17 17 18 19 19 20 20 19 19 19 19 19 19 19 19 18 18 20 20 20 20 19 19 20 20 21 20 20 19 19 19 19 18 18 18
3 4 4 5 5 5 5 6 6 6 6 6 5 5 6 5 6 7 7 8 8 8 7 7 7 7 7 7 8 9 9 10 11 10 9 10 11 11 12 12 12 12 12 12 12 13 14 15 16 17 17 18 18 17 17 17 17 18 19 19 18 18 18 18 18 18 18 19 17 17 20 20 20 21 20 19 20 20 20 21 20 20 19 19 19 18 18 18
4 4 5 5 5 5 6 6 6 5 6 6 6 5 5 5 7 8 7 7 7 7 7 7 7 7 7 7 8 9 9 10 11 10 9 10 11 11 12 12 12 12 12 13 13 13 13 14 15 16 17 18 18 17 18 18 17 18 19 19 19 18 18 18 18 18 19 19 18 18 20 21 20 21 21 20 20 20 20 21 21 20 19 19 19 18 18 18
4 4 5 6 6 6 6 6 6 5 5 6 6 5 6 6 7 7 7 7 7 7 7 7 7 7 7 7 8 9 9 10 11 11 10 10 11 11 12 12 13 12 12 13 13 13 14 14 15 17 17 18 18 18 19 19 18 18 18 19 19 19 19 18 18 18 19 19 19 19 20 20 20 21 20 19 20 20 20 20 20 20 19 19 18 18 18 18
4 5 6 7 7 7 7 6 6 6 5 5 5 5 6 7 7 7 7 6 6 7 7 7 7 7 7 8 8 8 9 9 10 11 10 10 11 12 12 13 13 13 13 13 13 13 14 15 16 16 17 18 18 19 20 19 18 17 18 19 19 19 20 19 18 17 19 20 19 18 20 20 20 21 20 19 20 19 19 20 19 19 18 18 18 18 18 18
4 4 5 6 7 7 7 7 6 6 5 5 5 6 7 7 7 7 7 7 7 7 6 7 8 7 7 8 8 8 8 9 10 10 10 10 11 12 12 13 14 13 13 14 14 14 14 15 16 16 17 18 18 19 20 20 19 18 18 19 20 20 20 20 19 18 18 20 19 18 20 20 21 21 19 18 19 19 18 18 18 18 18 18 18 18 18 17
4 4 5 6 7 7 7 7 6 6 5 5 6 7 7 7 7 8 7 7 7 6 6 7 8 8 7 7 8 8 8 9 10 10 10 11 12 12 13 13 14 14 14 14 14 14 14 16 16 16 17 18 18 19 19 19 19 19 19 20 20 20 19 19 19 19 19 20 20 19 19 20 21 21 20 19 19 19 18 18 18 18 18 18 18 18 18 17
4 5 6 7 7 7 6 6 6 5 5 6 6 7 8 8 8 8 7 7 6 6 7 7 7 7 7 7 7 8 8 9 10 10 11 11 12 12 13 14 14 14 14 14 14 14 14 15 16 16 17 18 18 18 17 18 18 19 20 20 20 20 20 19 19 19 20 19 19 20 19 19 21 22 22 21 19 18 18 17 18 18 18 18 18 18 18 17
4 6 7 7 7 7 6 6 6 5 5 6 6 7 8 8 8 9 8 7 6 6 7 7 7 7 7 7 7 8 9 9 10 11 11 11 12 12 13 14 15 14 14 14 14 14 14 15 15 16 17 17 17 17 17 18 18 18 19 19 19 19 20 20 19 19 20 20 19 20 20 21 22 22 23 21 19 18 18 18 18 18 18 18 18 18 18 17
4 6 7 6 6 6 6 6 5 5 5 6 6 7 7 8 8 8 8 7 7 7 7 7 7 7 7 7 8 8 9 10 10 11 11 11 12 13 13 15 15 14 14 14 14 14 15 15 15 16 16 17 17 18 19 19 18 19 19 19 19 20 19 20 19 18 20 20 20 20 20 22 22 19 20 20 19 19 19 18 18 18 18 18 18 18 18 17
5 7 7 6 6 6 6 6 5 5 5 6 7 7 8 8 8 8 8 8 7 7 6 6 7 7 7 7 8 8 9 10 11 11 12 12 12 13 14 15 15 15 14 14 14 15 15 15 15 15 16 16 17 18 19 20 20 20 20 20 20 20 20 20 20 19 20 19 19 19 20 22 20 16 17 19 19 19 19 18 18 18 18 18 18 18 17 17
5 6 7 6 6 6 6 6 6 6 6 7 7 7 7 8 8 8 8 8 7 7 7 7 7 7 7 7 8 8 10 11 11 11 12 13 13 14 15 15 15 15 15 15 15 16 16 15 15 15 16 17 17 18 19 20 20 20 20 20 20 21 21 21 20 20 20 20 20 20 20 22 20 16 17 19 19 19 19 18 18 17 18 18 17 17 17 17
4 5 6 6 6 6 6 6 7 6 6 7 7 7 7 8 7 7 8 8 8 8 7 7 7 7 8 8 8 9 10 11 11 12 12 13 13 14 15 15 15 15 16 16 16 16 16 15 15 15 16 17 17 17 18 19 20 20 20 19 20 21 20 20 20 20 20 20 20 20 20 22 20 16 17 19 19 19 18 18 18 17 18 18 17 17 17 17
5 5 6 6 6 6 6 6 6 6 6 6 6 7 8 7 7 7 7 7 8 8 7 8 8 8 8 8 9 9 10 10 11 12 12 12 14 15 15 15 15 15 16 17 17 17 16 15 15 16 16 16 16 17 17 17 19 20 20 20 20 20 20 20 20 20 20 19 19 20 21 22 19 17 18 19 18 18 17 17 18 18 18 18 17 17 17 17
5 6 6 6 6 6 6 6 5 5 6 6 6 8 8 8 8 7 7 7 8 8 7 8 8 8 9 9 9 10 10 10 11 11 12 12 13 14 14 14 14 15 17 17 17 17 16 15 15 16 16 17 17 18 17 18 19 19 20 20 19 19 20 20 20 20 21 20 19 21 21 22 21 18 17 18 18 17 17 16 17 18 18 18 17 17 17 17
5 6 5 5 6 6 6 6 5 5 6 6 7 8 8 8 9 8 8 8 8 8 7 8 8 8 9 9 9 10 11 10 10 10 11 11 12 13 14 14 14 16 17 17 18 17 15 15 15 16 16 17 17 18 18 18 19 20 20 20 20 19 19 20 20 20 20 19 20 21 21 21 23 20 17 17 17 16 16 16 17 17 18 18 17 17 16 16
5 6 5 5 6 6 6 7 6 6 6 6 7 7 7 8 9 9 9 8 8 8 8 9 9 8 9 10 10 10 10 10 10 10 11 11 12 13 14 14 14 16 17 17 18 17 15 15 15 15 16 17 17 16 17 19 20 20 20 20 20 19 19 20 21 21 21 21 22 22 21 22 24 22 17 17 17 16 16 17 17 17 18 17 17 17 16 16
4 5 5 5 5 5 5 6 6 6 7 7 7 7 8 8 9 10 10 9 8 9 8 9 10 9 9 9 9 9 11 11 12 12 12 12 12 13 14 15 15 16 17 17 17 17 16 16 15 15 16 17 17 16 16 18 19 20 21 21 21 20 21 22 21 20 20 21 22 22 22 23 23 20 17 17 17 17 17 17 17 17 17 17 17 17 16 16
3 3 4 4 4 4 5 6 6 6 7 8 8 8 8 9 9 10 10 9 9 10 9 9 10 10 9 9 9 10 12 13 13 13 12 12 13 14 14 15 15 16 17 17 16 16 15 15 15 15 17 18 17 17 17 18 19 20 20 20 20 20 20 20 20 19 19 20 19 18 20 23 21 17 17 17 17 16 17 17 17 17 17 17 17 17 16 16
3 3 3 3 4 5 6 6 7 7 8 8 8 8 8 8 9 9 10 10 10 10 10 10 10 10 10 10 10 10 12 13 13 13 13 13 14 14 14 15 15 15 16 16 17 17 15 15 15 16 17 18 17 17 18 18 19 20 19 19 19 20 20 19 19 19 20 21 20 17 21 24 20 16 16 17 17 17 16 16 17 17 17 17 17 17 16 16
3 3 3 3 4 5 6 6 6 7 9 9 8 8 8 8 8 9 10 10 10 10 10 11 11 10 10 10 11 12 13 13 13 13 13 13 14 13 13 14 14 15 16 16 16 16 15 16 16 16 17 18 16 16 17 18 19 20 19 19 19 20 21 20 19 19 19 21 21 21 23 23 18 16 17 17 17 17 16 16 17 17 17 17 17 17 16 16
Height
825 824 824 822 821 820 818 817 816 815 814 813 811 810 809 808 807 806 805 804 803 802 800 799 798 796 795 793 791 788 785 782 778 778 777 772 770 770 768 766 764 765 766 767 768 767 767 767 767 768 769 769 771 771 770 770 771 773 779 783 784 785 781 776 777 776 774 772 769 767 767 771 772 768 766 768 772 776 779 780 778 775 773 774 775 777 782 787
825 824 823 822 821 819 818 817 815 815 813 812 811 810 809 807 806 805 804 803 802 801 800 799 797 796 794 793 791 788 785 781 778 775 772 769 769 769 767 764 762 762 764 765 766 767 767 767 767 768 768 770 771 770 770 770 770 772 778 780 776 776 772 765 766 768 767 767 765 763 765 768 769 768 766 770 777 777 781 785 782 781 780 778 778 780 783 785
825 824 822 821 820 819 818 816 815 814 813 812 810 809 808 807 806 805 803 802 801 800 799 798 797 795 794 792 790 788 784 781 776 771 768 768 769 768 766 762 759 759 761 763 765 766 766 766 766 767 768 770 770 770 771 769 769 771 774 776 771 768 767 762 762 763 762 762 762 762 765 767 766 766 766 770 777 778 783 785 784 785 784 781 781 781 783 784
824 823 822 821 820 819 817 816 815 814 813 812 810 809 808 807 805 804 803 802 800 800 799 798 796 795 794 792 789 787 785 780 772 767 767 768 767 766 764 760 757 756 758 761 764 765 766 766 766 766 769 771 770 770 771 768 768 769 770 771 768 765 765 762 761 761 760 759 761 762 765 767 765 764 765 769 776 779 780 779 777 780 780 780 780 781 782 783
824 823 821 820 819 818 817 816 814 813 812 811 810 809 807 806 805 804 803 801 800 799 798 797 796 795 793 791 789 788 785 775 766 766 767 766 765 764 763 760 757 757 758 761 763 765 765 766 765 766 769 771 771 770 769 765 765 768 767 765 763 764 764 761 760 760 759 760 762 764 766 765 763 765 767 768 773 774 773 771 771 773 775 776 776 778 781 781
824 822 821 820 818 817 816 815 814 812 811 810 809 808 807 806 804 803 802 801 800 799 798 797 795 795 792 791 789 788 786 773 764 766 766 765 765 763 764 762 760 759 760 762 763 764 765 765 766 767 768 770 770 769 767 764 763 767 766 763 762 763 763 760 759 759 760 761 763 765 764 763 764 767 769 768 769 769 766 767 769 772 773 774 774 775 777 778
823 822 821 819 818 817 815 814 813 812 810 809 808 807 806 804 803 803 801 800 799 798 798 796 795 794 792 791 789 788 790 777 764 766 765 764 765 763 764 764 763 762 762 763 763 764 765 765 766 766 768 769 769 767 766 763 762 767 767 763 762 762 761 759 758 758 759 762 762 762 763 764 766 768 770 770 768 767 765 765 767 772 774 775 776 776 775 776
823 821 820 819 817 816 815 813 812 811 810 808 807 806 805 803 802 801 800 800 798 798 797 796 795 794 792 791 789 790 788 774 763 765 765 764 764 764 765 764 763 763 763 764 764 765 765 765 766 766 767 768 767 767 765 765 764 765 766 763 761 761 760 758 758 759 759 761 762 763 764 765 765 766 768 770 770 766 764 765 767 771 775 777 777 777 776 776
822 821 819 818 816 815 814 812 811 810 808 807 806 805 804 802 801 800 799 798 797 797 796 795 795 793 793 791 792 790 778 765 763 765 764 764 764 764 765 764 764 764 764 764 764 765 765 765 765 764 766 765 765 765 763 767 765 761 762 761 760 760 759 758 759 759 760 761 761 764 766 765 763 765 769 771 770 767 765 768 769 771 776 778 777 777 776 776
822 820 819 817 815 814 812 811 810 808 807 806 805 803 802 801 800 799 798 797 796 796 795 795 794 793 793 790 794 790 769 761 765 764 764 764 762 763 764 764 764 764 764 764 764 765 765 765 764 762 764 764 763 764 763 764 761 756 758 759 759 759 758 758 758 758 760 760 760 764 766 764 763 766 771 771 769 767 768 771 771 772 776 777 777 776 776 776
821 819 818 816 815 813 811 810 808 807 806 804 803 802 801 799 798 797 797 796 795 794 794 793 793 793 792 791 794 784 764 761 764 762 763 763 761 762 762 763 764 765 765 764 763 764 765 765 763 763 764 763 762 762 761 759 756 754 756 759 760 758 757 757 758 759 759 760 758 761 764 763 765 767 767 768 768 767 770 773 773 774 776 776 776 777 777 778
820 818 817 815 814 812 810 809 807 806 804 802 802 800 799 798 796 795 795 794 793 793 792 792 792 791 790 790 785 771 761 762 763 762 762 761 761 760 760 762 762 764 764 764 763 762 764 764 764 765 762 761 762 762 758 755 756 755 756 760 761 760 759 755 756 758 758 759 756 759 767 769 768 766 764 765 767 768 771 773 775 775 776 776 777 778 778 779
819 817 816 814 812 810 809 807 805 804 802 801 799 798 797 795 794 793 792 792 791 791 790 791 791 790 791 785 769 761 762 763 762 760 758 759 759 757 759 760 759 762 762 763 761 760 762 763 764 765 761 761 762 759 756 754 755 756 757 760 761 764 761 751 752 756 758 759 754 759 773 772 765 765 765 764 765 769 773 774 775 776 777 777 777 778 779 779
817 816 814 813 811 809 807 805 804 802 800 799 797 796 794 793 792 790 789 789 788 789 789 790 790 789 790 777 761 761 763 762 761 758 756 758 758 756 757 758 757 759 760 761 760 759 761 762 764 764 762 762 760 758 758 757 756 757 759 760 761 767 761 747 748 754 758 758 751 759 775 770 762 766 766 763 764 767 772 774 775 777 777 778 778 778 779 779
817 815 813 811 809 807 806 804 802 800 799 797 795 794 791 790 788 786 786 785 785 787 786 788 788 789 789 774 761 762 761 760 760 757 756 757 757 756 755 756 757 757 758 759 758 759 760 761 763 764 762 760 760 763 763 761 757 756 761 764 762 764 759 748 746 749 754 757 752 759 774 769 761 767 765 762 765 766 770 773 775 777 777 778 778 778 779 779
816 814 812 810 808 806 804 802 801 799 797 795 793 791 788 786 784 783 782 781 782 783 785 787 786 788 789 773 761 761 760 759 757 756 757 757 757 756 755 755 756 756 757 757 757 758 759 761 762 761 761 760 762 767 766 765 762 757 758 762 761 763 762 753 747 746 747 754 755 758 767 766 762 765 764 762 765 766 770 773 774 776 777 777 778 778 779 780
814 813 811 809 807 805 803 801 799 797 796 793 791 788 785 783 781 779 778 778 780 780 783 785 784 788 782 766 761 761 758 757 755 755 755 755 757 754 754 755 755 755 755 755 756 757 758 760 760 759 760 761 762 766 769 770 766 760 758 760 760 760 763 758 750 747 746 750 755 758 760 761 763 765 762 762 764 766 769 771 773 775 776 776 777 778 779 780
813 811 810 808 805 803 801 799 798 796 794 792 789 786 783 781 779 778 777 777 778 780 784 784 787 790 774 759 763 762 758 758 756 755 753 753 754 752 753 754 754 754 754 754 755 756 758 757 758 760 761 762 761 761 764 760 755 759 762 761 759 758 760 757 751 747 748 749 753 759 761 760 766 767 763 762 763 765 768 769 772 774 775 776 776 778 779 780
812 810 809 806 804 802 800 798 796 795 793 790 787 784 781 779 778 777 776 777 779 780 782 781 784 783 764 755 761 759 757 758 755 754 752 751 752 751 752 753 753 753 753 755 754 753 755 756 758 759 757 756 754 752 753 750 747 754 758 757 756 757 757 754 747 743 745 751 755 758 760 760 766 768 765 763 762 764 768 769 772 773 774 775 776 777 778 779
811 809 808 805 803 801 799 797 795 794 792 789 786 783 781 782 782 780 778 778 777 776 774 774 774 770 759 756 758 756 756 755 754 752 749 751 752 752 752 752 753 752 750 752 753 751 752 757 756 751 748 748 750 751 750 749 747 749 753 754 753 753 754 751 746 741 741 750 756 755 755 758 765 768 764 762 763 765 768 770 772 772 773 774 775 776 777 778
810 808 806 804 801 799 797 796 794 793 791 789 787 786 785 787 788 785 780 775 771 771 770 767 767 764 758 756 755 756 757 754 752 749 747 749 751 754 753 751 752 751 749 749 750 749 751 754 749 744 745 746 749 751 749 749 750 748 750 753 754 752 749 747 744 740 739 746 753 755 754 758 765 766 763 761 763 765 765 768 770 770 771 772 773 775 776 777
809 806 804 802 800 798 796 794 793 792 790 789 788 788 787 787 786 785 783 776 766 766 765 761 763 761 755 753 754 757 761 758 751 744 743 746 749 752 751 750 751 748 747 748 748 752 752 747 742 743 744 744 747 749 748 750 751 751 752 752 755 754 748 746 742 739 740 744 752 757 756 760 765 764 762 762 761 761 761 762 764 766 769 770 771 772 774 775
807 805 803 801 798 797 794 793 792 790 789 788 788 788 786 785 784 784 785 780 767 760 759 759 760 758 754 752 751 755 759 759 753 742 739 744 747 748 748 750 751 747 748 748 746 752 752 743 740 741 741 743 748 748 748 752 753 754 754 753 754 753 750 748 744 741 742 745 750 756 760 764 767 765 764 763 761 761 761 762 763 765 767 768 769 770 771 773
805 803 801 799 797 795 793 792 790 789 789 788 788 786 785 784 784 784 784 782 772 760 755 754 755 755 752 749 748 752 755 755 751 742 736 740 743 745 746 747 749 747 746 743 743 747 746 739 736 738 740 743 748 749 748 753 757 756 755 753 751 750 747 745 744 743 745 750 752 756 769 774 769 767 767 764 763 763 763 764 766 766 767 767 768 769 770 771
804 802 799 797 796 793 792 790 788 789 788 787 786 785 785 784 783 784 784 784 778 763 753 751 752 750 746 746 747 748 752 750 744 738 735 736 739 742 743 742 745 746 743 742 745 747 743 737 734 737 740 742 746 748 747 749 756 758 754 750 747 746 744 742 744 745 750 759 754 753 772 780 770 767 768 764 765 765 764 765 766 767 767 767 768 768 769 771
802 800 798 796 794 792 791 789 788 789 787 786 785 784 785 784 783 783 784 789 782 761 750 751 751 746 743 746 746 747 753 747 736 733 735 735 736 737 741 740 739 741 741 741 745 745 741 737 735 737 739 742 745 747 745 745 755 760 750 745 745 745 745 745 745 747 754 759 751 745 761 776 773 767 765 764 765 766 764 765 766 766 767 766 766 767 767 769
801 798 796 794 793 792 790 788 788 788 787 786 784 785 785 783 783 783 783 789 778 755 749 752 749 745 742 743 744 746 750 740 730 732 733 734 735 734 738 740 737 737 735 739 745 740 736 737 738 738 737 740 744 745 742 740 750 755 743 740 745 745 747 748 747 748 752 754 752 750 752 766 775 767 760 762 765 766 766 765 766 764 764 764 764 765 766 767
799 796 795 793 792 791 789 788 787 786 785 784 783 785 784 782 784 782 785 786 766 748 749 748 743 742 741 741 742 742 739 734 734 736 732 734 735 732 736 736 735 735 729 735 744 736 730 735 738 738 739 740 740 739 737 738 745 745 738 740 743 742 745 747 748 749 751 754 758 758 753 760 773 768 760 763 765 766 767 764 763 762 760 762 763 763 764 765
796 794 792 791 789 788 787 786 785 783 782 783 784 784 783 784 783 782 789 783 757 745 747 744 741 742 741 743 744 740 737 735 736 735 732 733 732 729 732 730 730 732 728 730 737 732 729 730 731 736 739 738 735 733 734 737 739 736 736 741 741 742 745 747 751 750 752 758 756 754 753 757 771 772 765 766 765 763 763 760 758 758 758 759 760 761 762 763
794 792 790 788 786 785 785 784 781 780 781 783 784 783 783 784 783 787 792 777 755 748 747 743 743 744 744 745 745 742 740 736 732 732 734 735 731 728 726 724 726 729 729 730 732 729 727 725 727 731 733 732 730 731 732 732 733 734 737 741 743 747 748 748 753 752 757 761 751 748 751 751 763 771 766 760 755 752 753 754 755 756 756 755 756 758 759 761
791 788 786 784 783 783 783 781 779 779 780 782 782 783 784 784 785 792 786 765 755 752 746 745 746 745 747 750 748 742 737 735 731 732 737 735 731 728 725 725 726 727 730 734 733 729 727 727 728 726 724 726 727 730 731 728 729 733 734 739 747 752 751 753 756 757 763 761 748 746 749 751 759 763 759 751 744 742 743 747 751 751 751 751 751 754 756 758
788 784 781 780 779 779 780 780 778 778 779 780 782 783 784 786 788 785 772 756 754 753 749 751 749 747 749 751 750 742 737 735 731 733 740 737 732 730 727 727 727 729 736 737 734 733 731 729 726 722 721 722 726 732 735 732 732 733 734 740 752 759 760 762 761 761 763 758 753 753 748 752 755 747 747 747 741 739 737 737 740 741 742 746 749 752 755 757
784 780 777 776 775 776 777 778 778 779 779 780 783 783 785 790 783 772 766 761 756 753 753 754 751 750 751 750 746 740 738 735 729 734 741 736 732 730 726 726 725 728 733 733 733 736 734 730 725 724 723 719 721 731 736 735 734 733 733 738 749 758 764 768 765 763 763 757 757 757 746 751 752 736 734 739 735 732 730 729 731 734 739 743 747 751 754 756
781 777 775 773 773 774 775 777 778 780 780 781 784 785 787 787 772 760 763 763 757 756 756 755 753 751 749 748 743 738 739 735 728 733 739 735 732 728 726 726 725 726 728 729 732 735 737 736 728 723 723 717 718 724 724 727 732 731 728 732 740 745 751 760 761 759 760 758 758 757 747 747 744 730 726 727 724 724 724 727 730 733 739 743 746 751 753 756
778 775 773 772 773 773 774 776 778 779 781 782 784 787 787 780 768 763 765 763 760 759 756 753 754 753 749 746 741 737 738 735 729 731 737 736 732 727 725 724 724 726 727 728 731 731 733 733 722 716 717 715 718 720 716 722 733 733 729 733 737 735 736 749 756 753 751 752 756 756 747 740 734 725 723 723 724 726 727 729 732 734 738 742 746 750 751 754
777 774 773 773 773 774 774 776 777 779 781 783 786 787 781 771 765 765 764 762 761 759 757 753 752 753 750 743 740 739 737 735 732 731 734 735 731 726 724 722 721 724 725 726 728 729 731 729 719 716 718 715 716 717 714 719 728 733 734 733 731 726 728 742 755 756 750 747 752 754 745 739 733 726 725 725 726 730 730 730 733 736 738 741 745 747 750 753
777 775 774 774 774 774 775 775 777 779 781 784 785 779 771 765 762 761 760 760 759 759 760 755 749 749 747 742 742 741 739 737 734 732 733 732 727 724 723 721 719 720 722 723 724 725 728 725 718 716 718 715 712 712 713 714 718 728 734 728 724 726 730 736 746 756 756 750 751 753 745 740 737 731 730 731 730 732 733 732 735 737 738 740 742 745 748 751
779 777 775 775 775 774 774 775 777 780 783 784 781 772 765 762 759 757 757 758 758 758 759 755 748 746 746 745 743 740 739 737 733 731 731 729 724 720 720 719 718 718 719 721 724 724 724 722 718 715 715 714 712 715 720 716 713 718 722 719 723 733 739 741 745 751 756 755 752 751 750 744 735 727 727 730 729 730 732 734 735 735 736 737 740 743 746 750
779 777 776 775 775 774 774 775 777 781 784 782 778 770 762 759 755 753 754 757 758 758 755 751 748 747 748 747 744 740 738 736 732 730 729 727 723 718 717 716 715 718 718 720 724 724 722 722 720 715 711 711 714 719 724 722 717 715 715 717 722 727 731 737 743 743 744 753 753 749 751 744 727 716 715 718 722 724 728 731 731 730 730 732 736 739 744 748
780 778 776 775 775 774 775 777 779 783 783 778 774 768 760 757 753 749 751 755 756 755 752 748 747 748 747 746 744 741 737 733 731 728 726 726 723 718 716 713 713 717 719 719 721 722 722 723 721 717 713 715 716 716 716 717 720 719 719 723 723 724 726 729 739 740 734 743 750 749 749 734 713 707 706 708 714 716 719 722 723 725 726 728 732 736 741 745
781 779 777 775 776 775 776 779 781 782 781 775 771 766 760 756 752 748 748 751 752 751 751 749 748 748 746 744 743 740 735 731 729 726 724 723 722 718 714 710 710 715 719 722 722 721 722 722 723 721 717 716 712 707 707 710 715 716 718 723 721 722 728 733 743 743 732 736 743 746 744 722 704 708 707 704 708 709 709 712 714 719 722 726 730 734 738 743
782 780 777 776 777 776 778 780 780 781 779 773 768 763 758 755 752 748 746 747 749 750 750 750 749 747 746 745 741 738 734 729 727 726 722 720 719 716 712 708 709 711 716 722 721 717 718 722 724 722 718 716 710 705 705 705 708 712 713 717 718 720 725 730 739 739 733 738 741 743 739 717 705 714 711 703 707 707 708 711 714 719 722 725 730 733 738 742
784 782 778 777 777 777 779 779 777 778 776 768 764 760 757 756 754 749 745 745 747 748 749 748 747 746 744 743 741 737 732 726 725 724 719 717 715 711 708 708 710 711 713 718 717 713 716 722 724 721 716 714 710 707 705 702 706 712 712 713 716 715 715 720 728 729 730 735 736 740 740 715 704 714 710 703 705 707 711 715 718 723 725 727 732 734 738 743
786 783 779 778 777 777 780 778 775 774 771 766 763 759 755 754 754 751 747 745 744 745 748 747 745 745 742 740 739 735 730 726 724 721 718 716 711 706 706 707 709 710 709 711 712 711 716 722 724 722 719 719 718 717 716 710 708 710 711 712 712 712 715 720 724 726 728 730 729 735 735 714 706 715 709 704 707 708 713 717 718 724 726 728 733 735 738 742
785 782 779 778 777 778 780 778 776 775 771 768 765 758 754 753 752 750 748 746 742 743 747 744 742 742 740 738 737 733 730 728 723 719 718 716 710 704 705 706 707 707 706 705 706 707 715 721 721 721 723 725 724 723 720 714 708 706 706 708 710 712 716 719 723 727 730 733 732 728 721 709 710 718 711 706 710 711 715 718 718 723 726 727 732 735 737 742
786 783 781 779 777 778 779 777 778 778 773 771 766 757 754 752 747 745 746 745 741 741 745 743 739 739 737 737 735 729 726 726 723 721 720 717 712 706 704 705 706 706 704 703 703 707 716 720 718 718 718 717 713 710 709 708 708 707 706 708 711 714 716 717 722 725 725 732 732 719 711 706 707 716 716 710 711 713 715 718 718 721 724 727 731 734 737 741
789 789 788 785 780 777 776 775 777 778 774 771 765 757 755 751 744 742 744 742 740 741 743 741 739 739 736 735 733 727 725 729 729 727 725 720 716 709 704 705 707 703 702 703 702 707 718 721 717 716 715 710 707 706 704 702 703 705 706 709 711 713 716 718 721 720 720 729 726 713 713 710 699 707 716 711 710 714 715 715 716 719 722 726 730 734 737 740
790 791 791 791 787 782 778 774 774 775 771 769 765 760 756 751 745 742 742 741 741 741 741 738 737 739 736 732 733 730 730 731 730 726 723 719 715 709 705 706 706 701 702 705 703 707 719 721 716 715 712 706 705 708 705 699 698 700 702 706 709 713 715 715 715 714 713 715 710 704 711 706 690 697 711 710 709 710 710 712 713 716 721 725 730 733 736 740
793 793 791 791 790 786 782 777 774 773 769 765 764 761 755 751 747 741 739 742 740 738 740 737 732 733 733 732 735 733 726 722 720 720 719 716 712 709 706 706 705 701 702 706 705 708 716 717 714 715 710 702 703 707 707 701 699 700 700 700 704 709 709 706 708 713 713 709 705 705 707 698 690 699 708 708 709 710 711 714 715 717 721 725 729 733 735 739
798 798 794 793 791 786 782 778 774 772 767 762 761 758 753 751 747 741 738 741 738 735 737 735 729 730 731 730 733 730 719 713 713 713 714 714 711 708 706 705 705 703 703 706 708 710 716 717 715 713 708 702 700 700 702 701 697 698 700 700 703 708 710 711 713 718 718 713 714 719 711 698 697 706 707 706 709 711 712 715 717 718 721 724 728 732 735 738
801 800 798 797 792 784 778 775 773 770 765 762 761 759 754 751 748 743 737 735 734 734 732 728 725 726 726 726 729 724 714 711 712 709 709 710 708 708 707 705 705 705 705 708 708 710 716 718 715 712 708 705 702 700 702 701 697 699 703 706 707 707 708 711 711 712 709 706 713 721 709 695 698 708 708 707 708 711 714 716 716 718 719 722 726 730 733 736
801 799 798 798 793 784 779 776 772 768 763 761 763 761 758 753 749 745 739 732 730 730 727 724 724 725 724 723 721 715 709 709 708 705 706 707 706 707 708 707 707 705 704 708 710 712 716 715 713 714 712 706 706 706 703 701 704 706 703 701 702 701 701 705 707 707 705 702 704 704 695 692 701 707 707 708 709 710 711 711 711 714 717 721 724 727 730 733
Wind_Speed
17 16 16 16 16 17 17 16 16 16 16 16 16 16 16 17 17 16 17 17 18 19 18 19 20 20 21 22 24 26 28 29 28 22 15 14 13 13 17 18 17 18 19 19 16 10 7 6 4 3 4 4 2 2 2 1 2 2 3 5 6 5 6 7 8 7 6 5 6 5 6 8 6 3 1 2 6 6 6 6 4 6 8 10 19 30 31 29
17 17 16 16 16 17 17 17 17 17 17 17 17 17 17 17 17 18 18 17 17 18 18 19 19 20 21 22 23 26 29 28 24 20 14 8 9 12 17 19 15 13 13 15 15 8 2 3 2 4 4 2 2 2 3 2 3 4 4 5 8 6 6 8 10 8 5 6 7 7 5 8 6 2 0 0 1 4 7 5 5 9 10 14 21 28 29 29
17 17 17 16 16 16 17 17 17 17 17 18 18 18 18 18 18 18 19 19 18 18 18 18 18 20 20 21 23 26 28 22 15 10 3 9 11 14 18 20 14 12 14 15 12 7 5 3 2 4 3 2 2 2 4 3 3 3 3 6 7 5 6 6 9 9 7 7 7 8 3 5 5 3 0 2 3 4 6 5 7 8 10 13 16 22 26 26
16 17 17 17 16 16 17 17 17 17 17 17 18 18 17 18 18 18 19 20 19 18 18 18 18 19 19 20 22 26 22 11 6 3 7 11 15 17 21 23 12 11 16 15 12 7 5 4 2 3 3 3 2 2 4 5 3 3 4 5 5 6 7 7 7 9 8 7 6 5 2 1 3 2 3 6 5 1 5 7 8 12 14 15 16 19 22 22
16 17 17 17 16 16 17 17 17 17 17 17 17 17 17 18 18 18 19 19 19 18 18 19 18 18 19 19 22 24 14 4 1 7 4 14 19 20 22 25 14 6 14 13 12 8 7 4 1 3 3 3 3 3 4 6 3 2 4 4 5 7 6 6 7 8 6 5 3 2 3 4 1 2 2 7 5 4 5 7 9 14 17 18 19 19 18 17
16 16 16 16 16 16 17 17 17 17 18 18 18 18 18 17 17 18 18 18 18 17 18 18 18 19 18 19 21 16 4 2 2 5 4 17 20 20 19 20 17 2 10 10 8 5 4 3 2 2 2 2 5 6 4 5 5 3 4 3 5 6 5 4 5 7 5 4 5 4 3 2 3 1 1 5 4 6 5 5 10 13 17 18 18 18 17 16
16 16 16 16 16 16 16 17 17 17 18 18 18 18 18 19 18 19 18 18 17 17 17 17 18 18 17 19 17 7 2 7 11 7 14 19 17 17 17 16 16 8 4 6 5 3 2 4 4 4 4 2 5 6 4 3 5 7 5 3 5 6 7 6 3 6 6 6 6 3 2 1 2 2 1 1 3 4 3 7 13 14 16 18 16 16 16 16
17 17 16 16 16 16 16 17 17 17 17 18 18 18 18 19 19 20 19 18 17 17 16 16 17 16 16 16 10 3 3 11 16 13 17 17 14 15 18 15 15 13 5 1 3 3 2 4 5 3 4 4 4 5 5 1 3 9 7 3 3 4 6 7 4 4 5 6 4 2 4 5 5 4 3 1 4 1 6 11 15 15 15 15 14 14 14 14
18 17 17 16 16 16 16 16 17 16 17 17 17 17 17 18 18 19 19 18 18 17 16 16 16 14 15 10 4 4 7 9 11 11 12 14 16 20 20 18 18 18 10 7 6 3 3 4 5 4 3 4 4 4 5 5 5 7 8 4 2 3 5 7 7 6 5 3 3 4 5 6 5 4 2 2 2 2 10 13 14 17 15 13 13 13 13 14
18 18 18 18 17 17 17 16 17 17 17 17 17 17 17 17 17 18 18 18 17 17 16 15 15 14 13 7 1 5 7 5 6 7 13 19 25 27 23 20 19 16 9 9 8 3 4 4 5 3 2 2 4 4 5 7 5 3 7 6 5 5 5 4 6 8 5 3 6 6 5 6 4 4 3 3 6 7 12 13 14 16 15 13 12 12 12 12
18 19 20 20 19 19 18 17 17 17 17 18 18 18 18 18 18 18 17 17 17 16 15 14 14 13 11 6 4 8 7 7 12 17 24 28 30 29 26 24 20 14 8 7 7 6 6 9 7 1 2 2 3 3 4 6 3 1 6 5 7 8 8 6 5 5 3 3 7 8 6 5 1 2 6 6 9 9 13 14 14 14 13 13 12 11 9 9
18 19 21 21 20 20 19 19 18 18 18 19 19 19 19 19 20 20 19 18 17 15 14 14 13 11 10 7 12 19 17 17 23 29 32 31 31 30 28 26 21 14 9 5 8 7 5 10 8 4 3 2 2 2 4 5 2 2 4 3 6 7 10 12 9 5 5 4 6 9 3 4 2 4 6 10 12 10 12 12 13 12 11 11 11 10 7 8
20 20 21 21 21 20 19 19 19 19 20 20 20 20 20 21 21 20 20 19 17 15 13 12 11 10 8 6 12 22 25 25 28 31 31 29 29 28 25 22 20 16 11 9 11 10 6 8 7 6 4 1 3 2 3 1 3 3 3 3 3 3 8 12 10 7 7 5 6 8 3 5 6 6 5 12 14 12 11 11 12 10 9 10 9 9 8 9
21 22 22 21 21 20 20 20 20 20 20 21 21 21 21 22 21 20 20 19 16 13 11 10 10 8 6 9 15 23 24 21 23 26 26 24 24 24 19 15 15 14 12 12 15 13 11 12 7 5 4 2 4 4 4 3 1 4 3 2 4 4 4 6 9 9 8 5 8 8 4 6 6 7 6 13 14 14 12 11 11 9 8 9 9 9 9 9
23 24 23 22 21 21 21 21 21 21 22 22 23 23 24 24 23 23 21 17 13 10 9 9 8 5 5 12 17 19 15 12 16 18 18 18 16 15 13 11 9 9 9 11 13 11 10 8 4 3 3 3 3 4 3 3 2 3 5 4 5 6 4 3 6 12 11 4 7 9 4 5 6 5 8 12 13 14 12 11 10 9 9 9 8 8 8 7
24 24 24 23 23 23 22 21 21 22 22 23 24 25 26 26 24 23 19 14 11 9 8 7 6 5 5 8 9 10 8 7 10 13 13 11 10 12 14 13 10 8 9 11 11 11 9 4 3 3 2 2 4 2 2 1 2 3 6 6 6 7 4 3 4 9 12 5 5 9 4 3 5 5 10 11 13 13 11 11 11 10 11 10 7 7 7 7
23 24 24 24 24 25 24 22 22 21 22 23 25 27 28 24 19 15 11 6 5 4 6 4 2 4 7 9 8 8 6 5 9 13 15 17 16 20 16 6 7 8 8 9 8 6 5 4 2 3 3 2 4 5 2 4 6 4 5 4 3 6 6 4 3 4 10 9 6 8 6 4 3 8 13 12 13 12 12 13 12 11 10 9 8 8 8 8
24 24 24 25 24 25 25 24 24 21 22 25 26 28 25 15 10 7 4 4 4 4 3 4 3 1 6 8 6 5 3 7 14 17 22 24 19 20 15 6 4 4 3 3 5 4 3 3 2 2 3 4 4 7 8 7 7 6 5 4 2 4 7 8 4 3 9 10 8 7 8 7 2 9 12 12 14 13 11 11 10 12 10 9 9 9 8 8
25 25 25 25 25 25 24 25 24 21 22 26 26 25 16 6 6 5 7 7 6 4 1 4 6 4 6 5 3 6 9 14 17 17 19 18 11 9 9 7 5 4 5 2 4 5 4 2 3 5 6 10 10 11 9 2 5 8 5 5 5 4 6 7 5 5 9 9 8 8 8 7 6 10 11 10 12 12 10 8 9 11 10 10 9 8 8 8
25 26 26 27 26 25 24 24 24 21 22 25 24 19 8 4 5 3 3 2 3 5 5 6 9 10 11 8 5 9 15 16 12 12 15 10 5 3 3 5 3 4 5 6 4 3 5 4 6 9 9 10 9 7 7 1 4 9 7 5 6 5 4 5 4 5 7 7 7 9 9 7 8 12 12 10 11 11 10 10 10 11 10 10 10 10 9 8
25 25 26 28 27 25 24 24 22 21 22 20 16 8 1 1 3 3 4 6 11 13 12 13 14 15 16 14 11 9 11 10 6 13 21 15 5 2 1 4 5 5 6 6 4 1 5 7 11 10 6 7 7 6 7 5 2 5 7 7 5 5 4 5 5 5 6 6 5 7 9 7 8 12 11 10 12 13 13 13 13 13 11 9 10 11 10 7
25 25 26 27 27 26 24 22 21 22 20 13 7 1 2 2 3 5 6 7 10 13 16 17 15 15 18 21 21 11 4 6 9 12 14 9 7 5 3 4 6 6 5 6 4 3 6 10 9 7 5 7 8 8 8 8 2 3 4 6 6 4 3 4 3 3 6 5 3 6 8 6 6 9 9 9 11 11 11 13 13 13 11 9 10 10 9 9
25 26 26 26 26 26 22 21 22 19 11 7 4 3 4 6 5 6 5 6 9 7 10 11 10 10 13 17 17 11 7 6 8 10 7 7 6 6 5 5 6 5 7 8 9 7 6 8 6 8 6 7 8 8 10 8 4 2 3 5 5 4 4 4 3 2 5 3 3 7 5 2 3 6 7 7 7 5 6 9 8 8 8 7 7 7 8 10
25 26 26 26 26 24 22 23 20 11 7 11 11 9 7 7 5 5 3 5 8 5 5 7 6 6 9 9 6 10 7 6 5 7 6 9 6 4 5 6 6 5 8 12 12 8 5 5 7 11 8 8 8 9 11 8 5 3 3 4 3 4 7 5 2 2 4 3 4 8 4 0 4 8 7 4 4 4 6 7 6 7 5 4 5 5 7 9
26 26 27 27 25 24 24 21 11 6 12 17 13 8 5 3 3 3 1 2 5 5 3 4 3 5 8 4 6 10 4 5 8 7 5 7 5 3 4 5 5 6 10 11 10 7 5 5 6 12 9 7 8 8 11 10 6 3 4 6 6 5 6 3 2 4 5 1 2 6 3 2 5 10 9 6 6 6 7 9 9 8 6 5 6 7 8 8
27 27 28 27 24 24 23 11 4 10 16 12 5 4 4 4 4 1 1 2 4 3 2 1 2 4 5 3 5 5 3 3 10 13 10 6 5 4 4 3 3 7 8 7 5 3 4 5 3 10 11 9 7 7 10 11 8 4 5 8 7 4 2 2 4 4 5 4 4 4 5 2 4 9 9 8 9 8 8 10 10 8 8 9 8 8 8 8
27 28 28 27 24 23 16 6 9 13 8 4 4 6 6 5 3 1 1 3 3 1 1 1 2 3 4 5 7 4 2 3 4 6 9 7 8 4 4 4 3 5 5 5 4 3 7 9 5 6 11 10 7 6 8 12 9 5 5 8 8 4 2 2 6 3 3 2 2 2 4 3 4 7 8 10 11 11 10 10 9 10 11 11 9 8 8 9
28 28 28 27 25 23 17 13 14 10 8 7 5 4 7 5 1 1 1 2 2 0 2 2 0 2 2 4 8 4 2 2 3 1 3 7 10 4 3 6 5 6 7 8 6 3 8 12 9 6 8 8 7 5 7 11 8 5 6 8 8 7 6 3 5 2 1 3 2 5 3 4 3 3 5 8 11 12 12 12 12 13 13 12 10 10 9 9
29 29 28 27 26 23 18 14 13 12 12 7 4 4 6 2 0 2 3 0 2 0 1 1 0 1 1 2 5 5 3 2 1 2 2 4 10 5 2 6 6 7 9 10 6 3 6 10 9 6 5 5 6 5 8 11 6 5 7 6 3 3 3 3 3 2 1 1 5 8 5 4 2 2 5 6 8 12 12 13 13 12 12 12 11 11 11 9
31 30 30 28 26 20 12 10 15 16 14 9 7 8 7 1 1 3 0 1 1 1 1 0 1 1 3 3 2 5 4 4 2 0 3 4 7 6 3 3 4 4 6 7 6 4 3 5 7 6 4 5 6 5 7 10 7 6 7 5 5 3 3 3 1 2 2 4 6 8 8 5 2 3 6 6 8 12 13 11 11 11 12 14 12 11 12 10
33 33 32 28 24 16 7 8 11 10 10 12 11 8 3 1 2 2 2 1 1 3 1 1 2 2 3 3 3 4 3 4 1 2 1 2 2 4 2 1 2 3 3 4 6 7 3 2 4 4 5 5 6 6 6 8 8 7 6 5 4 1 3 4 3 2 4 6 4 7 7 5 4 4 7 9 10 15 16 12 13 15 15 15 13 12 12 10
36 37 32 24 17 12 10 7 3 4 4 8 5 2 1 1 0 2 2 2 2 2 1 1 2 2 3 2 3 4 2 2 1 3 1 2 1 3 2 3 2 4 3 3 6 6 4 2 3 2 6 7 7 7 5 5 6 6 6 6 5 2 1 1 2 1 4 5 3 6 9 4 5 6 8 14 13 14 15 13 15 18 17 15 13 11 10 9
39 36 25 14 8 9 13 12 3 4 5 9 5 1 1 1 2 3 2 1 2 2 1 2 3 3 4 4 3 3 1 2 2 5 2 3 1 2 2 3 3 4 3 3 6 5 2 1 2 2 4 7 7 8 7 6 7 7 7 8 7 5 4 6 5 1 2 2 3 3 6 3 4 4 9 17 18 18 18 15 13 13 12 13 12 10 10 9
37 28 17 9 6 8 9 11 9 3 6 8 3 1 1 3 3 2 2 2 3 2 2 2 4 4 4 3 3 2 1 2 2 6 3 3 0 2 2 1 2 2 2 3 4 5 4 2 4 4 3 6 8 7 6 5 5 5 4 5 5 5 6 5 4 3 3 1 2 1 3 4 3 3 8 15 15 14 14 9 6 6 7 9 10 10 11 10
31 22 12 6 4 3 4 7 11 9 5 4 1 0 2 4 2 1 2 2 2 3 3 3 4 5 5 3 3 2 2 2 2 5 4 3 1 3 2 2 2 1 3 4 2 3 4 3 5 5 3 7 9 5 5 7 5 3 2 5 4 5 5 3 3 5 4 3 1 1 3 4 4 4 5 5 4 3 7 7 7 9 10 11 10 10 11 9
26 18 8 5 8 4 3 9 12 11 6 2 1 3 4 3 2 1 1 3 2 2 5 6 4 3 4 2 2 2 2 2 2 1 3 3 2 2 2 2 3 4 3 3 2 3 4 3 5 4 4 7 9 7 5 7 6 3 3 4 4 4 6 4 1 0 4 4 2 1 2 3 1 4 6 2 6 5 7 9 8 10 12 13 11 10 10 9
25 16 6 5 8 5 3 11 15 12 5 2 3 4 3 2 3 2 2 3 1 1 3 5 2 3 3 2 1 1 2 1 1 1 2 2 2 2 2 1 2 6 5 3 0 1 5 2 4 7 9 7 7 9 7 6 7 5 5 6 2 3 3 3 2 3 4 4 3 1 3 2 1 2 4 3 8 7 7 9 9 11 13 13 12 11 11 10
21 11 4 5 6 4 3 14 18 11 3 2 6 6 3 2 3 4 3 2 2 2 3 3 2 2 2 1 1 1 3 1 1 2 2 2 2 3 5 2 1 5 6 5 1 2 3 2 4 7 12 6 3 7 7 6 4 4 5 5 3 3 1 1 3 1 2 4 3 2 2 3 3 4 2 5 10 11 10 10 10 11 13 13 12 12 13 11
14 5 2 4 6 4 6 17 16 7 2 2 5 5 3 3 4 5 4 2 3 4 4 3 3 2 2 2 2 1 3 3 1 1 1 1 2 2 4 4 2 3 6 6 3 2 0 2 1 5 9 7 4 5 8 6 3 2 5 5 3 4 4 3 3 3 3 4 2 1 1 3 5 6 7 11 14 13 13 12 13 14 15 14 12 13 13 11
8 1 1 4 6 1 11 16 10 3 2 2 3 3 4 4 5 5 5 5 4 3 3 3 3 2 2 1 2 2 2 2 1 1 1 1 2 3 3 5 3 3 5 6 4 2 2 1 1 2 2 6 4 5 9 9 5 4 6 6 4 2 2 2 1 1 3 3 2 2 1 5 6 5 9 14 14 15 16 15 15 15 15 14 13 13 13 12
4 1 1 3 2 9 12 8 2 1 2 3 3 4 5 5 6 6 5 8 7 4 4 4 3 2 2 1 2 2 2 1 1 1 1 1 2 2 4 6 6 4 4 4 2 2 0 1 0 1 1 5 5 3 5 8 6 6 5 4 5 4 4 4 2 1 2 3 3 3 1 7 6 2 6 10 11 14 17 18 15 14 15 14 13 14 13 12
2 1 2 2 6 12 8 1 2 1 2 4 3 5 7 6 6 6 4 6 7 6 5 3 3 3 2 2 3 1 1 1 0 0 1 3 4 3 4 4 6 7 6 3 4 4 3 2 1 2 4 5 4 2 6 9 7 5 3 2 4 4 5 6 4 3 1 0 1 3 0 6 5 3 5 6 7 9 10 11 10 10 12 13 12 13 13 12
1 2 3 3 8 10 3 2 3 1 3 4 4 7 7 5 5 5 4 2 4 4 3 2 2 3 3 3 2 1 1 1 2 2 2 2 4 6 6 5 5 7 5 3 4 4 2 1 1 3 3 1 3 3 3 8 7 4 3 3 5 5 5 5 5 4 3 2 1 2 2 6 5 5 3 4 6 6 4 4 6 7 8 10 12 13 13 12
3 3 3 2 7 6 1 2 2 3 4 4 6 8 6 4 4 6 5 3 2 2 1 2 2 2 3 2 2 2 1 1 2 3 3 2 3 6 7 8 7 5 4 4 3 3 2 1 1 2 2 3 3 3 1 4 6 5 4 4 6 6 6 4 3 3 3 4 5 4 4 7 5 6 2 4 7 7 6 6 8 9 9 10 11 11 12 13
3 2 2 2 5 4 1 1 2 3 5 6 8 7 5 3 5 6 6 5 4 2 0 2 3 3 4 2 2 3 2 2 2 2 2 2 3 3 5 10 10 6 4 4 3 3 3 2 2 4 4 5 4 4 4 4 5 5 5 7 8 7 8 6 3 4 3 4 4 5 5 7 5 3 2 4 7 8 8 8 8 9 9 10 10 11 11 12
2 0 3 2 3 3 2 2 1 2 4 5 5 5 3 3 3 5 5 4 4 3 1 2 3 3 2 1 1 3 2 2 1 2 2 2 3 3 3 9 10 7 7 7 5 4 2 1 2 4 5 5 6 6 4 4 4 4 6 8 7 7 9 6 5 4 5 3 3 6 6 4 5 2 3 4 7 8 9 11 10 10 11 10 10 10 11 11
2 0 2 4 1 2 2 1 2 2 4 3 3 4 4 6 6 2 3 2 2 2 1 2 2 2 0 2 1 2 2 1 0 2 4 4 4 4 2 6 8 10 13 9 3 4 3 2 3 5 6 7 7 7 5 8 9 7 8 8 7 7 9 7 5 5 5 6 3 8 5 3 7 7 8 7 8 9 9 11 12 11 12 11 10 11 12 12
2 1 1 3 2 2 3 3 4 6 7 4 2 3 5 8 8 4 1 2 1 2 2 2 2 2 3 2 1 1 1 1 1 2 3 3 4 4 3 4 5 9 10 3 1 3 4 3 4 3 6 9 7 7 6 8 11 8 9 10 8 8 10 10 8 7 7 7 7 7 7 7 8 6 9 8 7 8 9 10 11 12 12 11 12 12 13 13
2 1 1 2 2 4 5 8 9 9 8 5 2 2 5 8 9 6 1 1 3 2 3 2 3 4 7 6 4 2 2 2 1 3 3 2 3 2 3 4 2 4 5 4 2 2 3 3 4 2 6 8 5 5 6 6 8 7 8 10 10 9 11 9 6 6 6 6 7 5 8 9 8 5 6 4 3 4 6 7 9 12 14 13 13 14 13 13
2 2 3 3 4 5 6 7 7 6 5 4 3 3 6 7 9 9 2 2 3 3 3 4 5 5 7 8 6 5 5 4 2 4 4 0 3 2 1 1 2 3 4 3 1 1 1 3 2 1 3 7 4 2 5 6 8 9 8 8 10 9 7 5 3 4 4 3 1 4 3 7 7 3 5 5 6 7 8 10 11 12 13 14 13 13 13 14
4 5 5 4 4 4 4 4 4 4 3 3 3 5 7 7 10 12 6 4 5 4 4 5 6 4 4 5 6 8 9 6 6 7 6 3 2 1 1 1 2 4 3 2 2 2 1 2 2 4 2 6 5 3 4 4 7 9 6 7 9 8 6 4 3 5 6 4 4 6 1 6 6 3 5 7 9 9 10 11 11 11 13 15 15 15 14 15
7 5 4 3 3 3 4 4 4 3 2 2 5 7 7 8 9 9 6 2 4 6 7 6 6 5 2 3 6 8 6 6 8 9 6 5 4 4 2 2 1 3 4 3 2 1 2 2 3 3 2 5 5 4 4 5 7 4 6 8 9 6 5 4 1 4 7 7 7 5 4 6 4 6 7 7 10 12 12 13 12 13 14 14 14 15 15 15
Wind_Direction
349 350 347 345 343 343 344 342 343 340 340 339 337 336 333 332 330 332 335 334 332 330 331 330 330 332 331 332 331 331 329 323 319 313 295 288 305 331 336 322 289 270 274 279 281 288 306 304 265 191 139 134 163 196 206 182 124 149 142 204 213 184 194 178 178 189 174 208 229 231 196 189 247 310 157 60 61 79 57 40 44 44 58 88 112 124 132 137
346 346 345 343 340 340 340 340 340 339 338 337 337 335 333 333 330 331 332 333 333 330 330 329 330 330 330 332 330 329 327 321 313 296 288 321 351 342 342 339 305 256 246 253 260 255 216 310 254 149 122 151 201 180 197 200 170 183 146 202 219 182 186 183 178 184 173 192 221 239 186 170 215 251 130 82 67 93 78 68 81 80 90 103 117 126 133 140
344 343 341 339 338 337 336 336 337 336 335 334 334 333 333 333 331 330 329 331 334 332 330 328 330 329 331 332 327 329 327 321 309 285 342 34 5 341 346 343 307 235 216 225 238 227 196 290 267 144 128 177 208 162 179 210 197 187 156 212 228 182 194 205 185 190 201 192 210 244 185 146 218 209 138 164 144 117 119 139 122 121 132 126 130 135 140 147
343 341 338 336 335 334 333 332 331 332 331 330 330 330 331 330 330 329 329 329 330 333 330 329 330 329 332 330 325 331 330 318 298 184 92 22 351 344 353 354 328 217 203 211 216 220 238 287 276 123 129 193 231 150 177 212 197 180 190 210 210 172 197 221 201 198 210 201 203 222 152 176 233 153 120 139 135 186 181 187 173 157 150 143 144 146 150 154
341 339 336 333 333 332 331 329 328 328 327 327 328 327 327 328 328 327 329 328 327 331 330 329 329 329 332 328 326 333 334 317 286 150 117 350 341 340 354 6 1 204 191 197 205 221 250 258 93 84 117 177 186 168 209 216 173 197 218 188 184 176 197 228 210 208 208 195 199 159 173 228 208 74 107 139 162 237 199 193 183 160 152 152 152 152 157 160
338 336 335 331 330 329 328 328 326 325 325 325 326 326 325 325 326 326 328 327 326 327 327 329 329 329 330 326 327 335 352 292 263 172 308 330 330 338 0 10 10 24 183 182 186 205 217 182 128 128 141 159 192 203 229 211 176 225 241 179 195 183 194 236 208 218 207 175 199 181 208 213 88 11 180 142 186 233 228 178 156 154 153 153 153 156 164 167
336 335 333 331 328 325 325 326 324 324 323 323 323 324 324 323 324 326 327 327 326 326 326 327 327 329 328 328 332 346 100 267 261 270 314 322 324 345 3 2 13 29 183 185 181 185 152 154 171 161 140 166 210 215 220 212 196 222 246 211 214 189 198 232 213 223 213 203 216 185 287 253 141 231 171 123 268 257 232 155 142 147 153 153 158 166 168 170
337 336 333 330 325 323 324 322 323 323 321 320 319 320 321 320 322 323 325 325 326 325 325 326 328 330 329 335 346 337 258 258 264 289 309 313 325 347 353 348 0 8 1 251 219 198 168 158 181 165 151 203 202 194 195 219 239 225 224 207 212 194 208 233 238 237 221 223 222 175 266 243 201 194 124 152 299 328 133 139 140 143 152 159 167 171 171 174
337 335 333 330 327 324 322 321 321 321 319 318 317 316 317 317 317 318 319 321 322 323 323 325 325 326 327 338 19 307 270 255 274 295 306 318 326 330 336 335 340 352 0 336 324 252 219 178 194 188 170 211 191 178 186 192 235 224 202 195 210 214 223 230 240 243 230 222 167 174 246 257 224 179 119 182 198 128 131 137 142 145 155 166 172 176 177 179
336 335 334 332 331 327 325 323 320 319 319 318 317 316 315 313 311 311 312 313 315 316 318 320 321 324 323 323 346 281 267 274 303 306 310 315 314 315 320 323 331 344 346 329 328 271 221 209 215 190 156 227 198 191 187 191 226 207 180 198 213 236 253 213 223 237 233 211 172 175 228 256 241 181 227 198 153 144 134 140 148 148 159 167 174 182 182 183
336 336 334 332 330 327 326 324 321 320 318 317 317 315 312 310 307 305 304 305 307 309 311 313 316 317 313 302 262 253 253 280 297 304 307 309 308 308 309 309 316 324 319 319 305 269 238 240 252 226 183 232 214 220 218 207 259 213 158 193 220 230 253 228 223 234 215 221 183 168 215 252 53 186 224 167 148 152 138 144 153 152 161 168 176 183 185 191
335 334 334 331 328 326 325 323 322 321 320 318 316 314 312 309 305 303 301 302 303 301 303 306 309 308 304 285 249 248 258 281 299 305 302 301 300 298 298 299 301 298 283 278 284 280 248 242 253 254 234 214 188 222 244 215 220 233 145 167 226 219 239 236 234 213 169 220 182 150 214 262 181 215 213 152 148 153 140 147 156 156 164 169 177 182 189 193
335 335 334 330 328 327 324 323 322 322 321 319 317 314 310 307 304 302 301 301 300 296 298 302 299 298 294 270 252 259 273 290 300 300 293 293 294 292 294 294 293 285 260 244 261 272 275 264 247 244 278 331 203 220 300 254 161 196 160 156 210 207 239 228 216 202 179 199 163 145 226 258 231 247 196 152 150 149 145 154 159 161 168 173 179 182 191 193
334 334 332 329 329 329 326 325 325 324 322 320 317 312 307 304 301 301 301 297 296 292 293 296 289 291 271 258 273 280 287 296 293 289 288 292 292 293 300 301 294 278 250 241 256 269 279 274 247 239 275 242 255 321 352 347 119 156 157 181 189 194 252 217 190 184 190 199 151 153 238 251 256 274 191 159 155 153 153 159 161 163 168 175 182 183 193 197
333 332 330 327 328 328 326 326 326 324 323 320 316 311 307 305 304 306 304 293 288 283 282 289 276 278 282 270 281 290 293 290 286 295 304 301 289 288 307 323 310 277 248 240 251 267 273 265 217 212 264 214 236 323 353 335 336 153 177 204 193 205 272 260 192 178 185 199 147 163 227 252 257 258 186 164 163 161 156 159 161 166 172 177 183 184 193 195
331 330 328 326 326 326 325 325 325 323 322 320 317 314 310 310 311 310 305 292 286 272 260 281 257 223 263 277 294 305 285 258 294 324 331 317 294 284 299 309 299 268 248 244 245 256 253 231 179 187 225 194 177 156 38 347 279 228 201 196 190 203 231 275 248 190 176 149 165 188 193 249 252 200 172 165 169 165 157 161 163 169 178 180 182 184 189 187
330 330 328 327 326 325 325 326 324 322 323 322 320 317 315 318 318 312 309 305 298 250 212 227 210 200 248 269 297 306 273 267 322 330 315 308 300 286 285 291 285 258 236 240 232 236 227 189 186 186 185 194 152 132 141 212 221 231 204 192 193 185 181 205 266 214 169 160 191 202 194 230 239 171 169 166 168 167 163 168 168 173 182 182 181 186 188 189
330 329 327 326 324 323 325 325 325 325 325 324 323 320 318 327 338 341 31 81 84 95 167 207 171 213 256 250 280 315 327 318 319 314 302 305 302 280 260 219 255 240 177 240 219 186 183 185 175 152 171 191 175 169 186 207 203 192 174 176 162 147 176 195 218 206 167 176 191 179 200 233 192 166 177 172 171 172 168 166 165 174 184 184 183 188 187 190
330 329 326 323 322 322 322 322 324 326 326 327 326 324 323 348 5 26 87 95 90 88 175 204 178 214 267 247 265 311 317 310 306 300 293 302 312 280 237 214 238 183 150 195 199 179 175 175 165 175 197 197 196 191 191 198 158 162 147 158 162 148 195 204 211 206 164 170 192 173 192 212 168 173 184 176 172 169 162 155 161 176 188 189 187 187 184 194
329 328 325 322 322 322 320 319 322 324 327 328 330 334 345 14 357 6 83 107 209 220 234 220 200 229 270 281 282 296 305 305 296 283 278 281 311 321 203 197 213 177 181 179 183 190 163 179 209 204 206 197 194 186 194 278 105 143 141 163 181 157 200 215 208 214 158 154 200 179 182 196 172 178 185 174 164 163 160 161 171 181 191 193 190 186 185 197
329 327 324 324 323 323 321 319 321 323 324 323 330 345 29 6 336 311 315 266 241 235 244 244 228 237 257 263 268 291 311 303 272 271 275 268 250 289 229 185 177 188 188 160 169 198 160 204 221 208 196 176 171 159 188 235 41 116 148 168 198 177 199 219 203 212 169 166 214 175 177 197 180 183 186 165 161 170 170 172 182 186 191 193 187 184 180 184
329 327 325 322 321 324 324 320 319 322 321 317 329 14 195 263 265 283 309 287 256 227 233 247 242 249 256 257 262 263 270 277 279 278 269 245 192 190 190 179 189 188 156 142 175 195 197 222 213 182 160 146 160 159 177 214 212 73 124 153 191 204 222 247 231 209 170 179 224 167 179 203 188 185 183 170 174 182 181 182 187 186 186 191 184 178 173 172
329 327 325 320 321 325 324 321 322 323 327 330 314 251 276 308 292 294 304 296 288 231 219 241 239 251 260 261 257 230 207 233 268 277 237 161 166 192 179 184 200 172 143 168 193 187 204 226 177 153 159 146 159 164 168 205 216 123 105 142 181 197 185 218 258 184 144 156 161 149 166 189 159 170 175 182 186 181 182 184 188 190 192 193 184 174 173 176
329 326 322 320 323 325 324 324 322 322 340 333 304 277 301 316 303 315 307 283 295 270 222 221 215 239 253 263 226 189 205 211 217 271 228 167 167 192 186 187 183 172 177 189 198 200 234 257 166 158 172 157 158 169 169 192 221 192 165 163 178 182 175 184 231 144 94 48 121 121 95 318 174 177 177 171 167 165 170 170 179 200 202 183 177 179 183 185
327 325 322 324 326 326 327 324 319 330 333 321 301 292 329 332 308 333 350 296 288 278 259 215 197 232 232 226 166 167 191 231 221 245 220 168 166 175 194 190 174 195 195 185 193 211 250 272 166 163 177 162 159 176 175 181 200 216 217 208 194 170 161 142 97 122 105 23 202 129 111 272 196 190 191 167 163 174 174 181 190 196 195 188 189 190 188 187
327 324 324 327 328 327 329 325 317 335 329 322 326 351 346 323 328 358 111 314 284 274 282 211 150 213 223 175 159 146 91 256 237 225 219 227 228 200 198 197 189 206 188 166 191 210 225 248 181 168 177 166 168 184 180 175 179 218 228 207 194 162 126 85 83 116 145 207 237 163 151 217 207 200 199 176 177 185 184 194 198 191 196 204 201 191 186 185
326 324 324 326 325 325 325 306 309 321 314 310 13 14 350 333 341 136 111 347 299 254 199 223 122 183 226 175 160 134 125 270 286 206 201 234 240 203 190 204 192 197 161 149 208 177 177 215 231 191 179 176 182 188 185 174 170 223 223 177 174 194 225 120 91 105 179 194 243 196 134 136 200 200 188 178 187 196 197 203 203 199 202 204 201 191 185 186
325 324 323 322 321 318 309 296 300 294 268 272 282 326 355 3 33 121 71 358 295 117 146 242 227 192 236 169 170 181 221 297 350 156 185 246 238 192 173 214 185 181 169 171 209 167 164 204 218 194 188 191 184 167 171 166 166 221 203 162 167 196 205 148 95 95 133 100 222 242 167 147 233 216 171 181 196 201 204 209 211 209 204 199 196 192 190 188
326 324 321 319 318 313 306 290 274 262 270 273 219 288 347 10 2 58 87 278 293 1 134 232 248 246 316 118 195 248 297 349 295 230 15 289 239 210 206 213 177 182 187 180 199 176 168 202 200 169 188 199 168 149 156 161 178 196 161 132 120 172 168 131 130 154 106 122 221 225 185 154 276 252 172 187 203 201 205 212 214 210 203 200 195 191 190 187
325 323 320 319 314 311 308 275 262 263 269 260 242 283 326 337 55 54 110 271 322 265 226 14 10 330 355 25 276 266 262 251 251 21 15 326 250 240 238 177 139 161 183 171 191 220 188 190 190 167 182 189 155 152 161 165 167 141 131 102 64 53 54 72 92 106 136 248 229 201 180 158 234 239 192 191 195 194 201 210 208 204 204 203 196 190 189 187
324 323 320 316 308 299 292 270 276 277 258 254 259 273 314 345 87 96 228 262 325 285 321 17 328 2 26 15 302 279 263 247 230 94 343 311 234 231 224 103 62 88 119 137 181 233 268 174 200 178 162 165 144 153 173 174 163 134 132 123 97 44 23 41 8 48 178 240 243 182 165 157 211 231 203 204 205 200 203 204 195 198 204 201 193 189 187 185
325 324 320 316 301 271 241 241 318 11 208 209 220 222 117 16 220 207 249 347 314 278 38 348 292 338 350 336 263 261 283 249 180 116 232 293 233 218 195 181 163 112 146 167 167 219 256 205 235 235 164 168 152 153 171 188 179 146 133 136 136 161 74 147 238 197 197 253 284 169 146 148 234 233 199 202 211 212 210 206 198 200 201 193 186 183 179 177
326 326 325 321 295 245 231 229 251 41 128 154 146 121 130 226 249 219 234 320 252 227 65 294 279 301 310 312 267 254 271 236 178 126 176 273 257 238 243 190 151 120 169 177 145 177 224 240 231 210 177 179 165 160 172 189 186 169 159 160 164 162 157 192 213 188 191 266 313 191 161 176 260 257 199 195 206 214 213 210 202 198 191 180 174 172 171 174
329 331 333 326 292 252 235 224 221 190 129 139 127 46 174 237 252 208 219 250 253 285 343 301 290 293 281 265 252 246 44 286 213 132 155 275 16 180 257 230 153 111 117 135 140 167 175 214 216 198 189 186 183 178 163 149 166 183 160 140 156 165 165 187 191 171 193 203 353 276 199 183 192 243 212 196 207 215 208 201 171 153 154 157 163 166 168 175
335 342 346 351 350 289 219 191 198 193 155 130 103 164 219 251 260 229 252 255 275 302 307 292 290 294 280 245 251 253 165 262 273 132 157 239 218 168 199 203 174 138 116 144 171 161 158 239 243 216 191 174 178 184 136 124 158 207 113 117 176 183 146 120 152 171 165 128 79 222 221 210 194 273 276 196 184 171 165 160 140 142 146 150 164 171 169 174
344 354 10 36 28 28 168 177 181 181 175 134 134 218 232 248 245 199 212 239 259 299 309 297 264 258 283 255 261 285 193 214 292 146 169 208 223 190 198 209 164 157 152 152 184 158 150 259 262 195 195 192 173 171 176 168 168 169 144 169 194 155 121 104 144 97 98 135 220 218 232 296 281 292 313 127 128 119 144 153 149 151 153 158 171 173 169 172
344 348 5 20 14 27 152 179 176 171 168 156 212 231 233 242 238 215 218 245 253 254 298 301 227 205 279 295 230 238 189 209 268 203 189 214 236 195 178 241 170 179 182 146 295 196 150 235 267 177 188 224 181 167 195 194 155 144 188 195 145 92 86 96 123 7 62 158 256 263 186 253 183 235 313 110 148 163 162 157 153 155 160 167 173 169 167 169
333 329 333 355 355 347 196 177 170 163 153 207 246 251 236 223 228 208 210 245 261 232 246 264 222 210 252 294 288 202 170 205 247 177 185 225 254 188 155 167 215 195 182 140 105 295 150 184 279 195 184 200 156 160 194 218 187 160 183 183 140 150 202 97 136 129 106 163 271 317 208 223 196 209 234 170 180 183 170 162 158 164 170 172 171 168 163 161
328 321 322 353 357 325 188 165 158 154 180 229 253 255 241 242 247 228 201 211 257 248 238 240 227 221 229 248 294 249 170 185 190 164 161 180 250 225 165 174 209 188 169 147 156 286 50 127 254 222 186 159 129 168 190 206 220 123 149 169 170 167 177 158 151 164 149 160 219 286 316 254 231 216 192 192 195 183 170 173 177 179 179 173 169 168 164 160
329 334 312 355 9 149 161 151 144 150 220 239 247 259 284 283 267 253 202 188 234 243 239 255 232 216 252 269 290 253 190 176 151 165 204 192 241 272 205 177 161 162 164 157 176 260 349 89 180 271 198 151 168 206 193 184 172 149 163 178 180 146 129 145 145 145 138 139 178 180 300 261 244 210 191 198 195 180 176 183 186 184 179 171 167 165 163 164
323 9 305 348 64 148 144 130 137 196 222 265 256 253 284 283 273 281 231 199 220 234 239 268 274 275 290 299 290 250 189 154 143 166 272 216 207 267 238 189 156 141 138 142 192 233 340 103 159 306 197 175 196 209 173 170 160 150 165 185 177 142 114 145 203 287 115 127 169 150 214 267 257 228 214 208 193 186 187 186 186 182 175 170 165 163 162 162
316 18 297 308 154 150 132 105 234 192 235 262 271 264 280 284 276 292 273 212 220 230 232 248 269 281 264 235 263 261 169 162 179 187 240 214 201 216 242 213 159 141 126 146 212 205 164 121 59 282 225 203 233 246 153 155 142 135 163 177 154 131 121 149 187 230 192 138 150 119 107 271 266 279 256 214 187 193 195 187 180 172 168 161 156 158 158 155
333 308 302 278 176 155 84 308 209 207 240 250 291 277 272 277 273 284 293 258 229 222 220 229 245 256 236 219 243 249 187 175 188 210 222 218 227 221 208 183 148 137 130 169 209 192 167 138 13 297 284 308 325 333 138 146 133 142 199 161 151 171 157 149 167 175 183 210 172 110 273 268 282 302 276 171 151 155 151 147 144 146 154 154 152 155 155 152
315 280 306 292 189 171 32 298 255 294 275 284 296 281 266 249 255 273 283 277 247 215 220 241 229 234 234 224 236 253 272 157 207 237 234 211 242 231 195 174 167 162 163 183 193 184 196 213 59 41 61 67 33 30 110 175 168 179 202 175 175 178 141 122 137 140 185 219 165 142 233 254 286 321 340 116 120 124 124 125 135 145 155 154 151 153 154 153
313 241 273 288 183 179 214 242 271 292 298 309 299 291 291 257 238 247 259 265 251 227 263 255 247 252 246 230 246 260 235 172 205 274 258 223 266 267 192 184 186 183 189 191 173 163 183 185 127 109 123 145 168 181 196 202 181 174 183 182 187 173 153 154 142 137 209 232 149 156 224 260 291 335 62 117 124 129 134 134 138 150 156 155 154 153 154 154
359 1 306 316 168 181 234 223 209 263 294 317 308 297 300 296 269 232 231 257 247 225 226 244 252 269 259 154 275 275 252 175 185 310 301 274 279 292 195 187 185 180 191 187 150 111 101 212 181 160 174 185 191 210 209 152 154 183 186 182 177 163 166 160 123 152 193 167 167 212 218 264 285 231 170 171 154 148 148 146 149 156 157 157 155 152 153 156
41 52 323 345 305 243 260 202 166 253 285 300 309 306 304 307 310 271 179 209 229 209 227 243 250 276 302 79 16 300 324 11 106 256 280 260 251 285 246 171 174 189 194 189 155 103 81 313 237 184 219 230 213 222 209 161 172 188 181 178 165 146 157 160 164 196 168 129 232 250 196 214 259 215 190 195 172 160 164 161 160 161 159 157 153 150 152 156
36 229 302 1 321 286 312 303 298 303 298 279 253 299 309 310 317 323 238 253 259 155 171 283 292 250 227 189 192 286 271 231 203 226 263 253 254 309 14 115 167 198 190 165 39 106 110 277 252 203 255 258 229 229 228 184 176 174 171 176 164 148 159 172 194 203 163 160 231 236 174 203 248 218 192 199 179 168 169 162 157 153 151 152 153 153 153 156
18 301 324 10 302 273 280 284 294 303 301 294 280 292 308 314 316 311 265 287 308 222 173 250 263 229 234 227 212 247 232 186 258 258 236 255 300 351 78 109 158 183 154 110 60 111 131 249 251 236 281 280 246 216 219 189 160 153 172 177 166 165 173 179 195 194 180 211 234 192 181 225 247 207 182 185 149 132 127 131 144 151 154 157 158 159 158 157
14 309 326 331 289 276 268 276 294 296 290 304 319 319 319 319 319 318 309 166 282 280 176 224 243 224 232 225 201 226 230 192 222 242 199 179 342 359 115 159 149 126 107 100 103 76 126 241 276 35 304 297 306 148 178 187 161 154 177 178 159 156 163 163 166 161 175 245 266 113 168 253 264 209 156 138 122 123 135 148 155 158 160 160 161 161 160 161
341 294 309 312 295 298 294 297 307 296 301 339 338 331 328 320 320 323 311 201 214 253 227 249 280 277 221 195 197 235 239 206 213 228 201 185 265 256 262 295 128 120 100 101 110 97 147 235 333 28 359 302 320 75 135 164 139 138 170 179 156 147 151 167 184 179 181 179 100 84 115 259 255 184 135 131 134 139 150 158 159 165 167 165 165 165 164 168
337 297 300 297 283 301 312 316 316 302 316 340 323 319 310 296 306 321 317 255 225 246 242 253 296 312 300 240 233 241 239 214 226 235 210 201 232 227 233 289 267 149 142 124 89 112 156 227 310 8 350 296 319 42 102 113 106 135 201 187 169 159 149 148 229 228 194 156 126 143 215 236 199 151 140 147 153 158 167 171 170 170 168 166 168 168 170 174